Regional Weather Roundup
Issued by NWS Cleveland, OH

Home | Current Version | Previous Version | Text Only | Print | Product List | Glossary Off
Versions: 1 2 3 4 5 6 7 8 9 10 11 12 13 14 15 16 17 18 19 20 21 22 23 24 25 26 27 28 29 30 31 32 33 34 35 36 37 38 39 40 41 42 43 44 45 46 47 48 49 50

477
ASUS41 KCLE 221212
RWRCLE
OHIO REGIONAL WEATHER ROUNDUP
NATIONAL WEATHER SERVICE WILMINGTON, OH
700 AM EST THU FEB 22 2018

NOTE: "FAIR" INDICATES FEW OR NO CLOUDS BELOW 12,000 FEET WITH NO
SIGNIFICANT WEATHER AND/OR OBSTRUCTIONS TO VISIBILITY.

OHZ001>008-015>018-024>027-034-035-043-044-221300-
   NORTHWEST OHIO

CITY           SKY/WX    TMP DP  RH WIND       PRES   REMARKS
DEFIANCE       MIX PCPN  32  27  81 E10       30.50F WCI  24
FINDLAY        LGT RAIN  33  27  78 NE17      30.50S WCI  22
TOLEDO EXPRESS MIX PCPN  32  28  85 E15       30.52F WCI  22
TOLEDO EXEC    FLURRIES  32  26  78 E13G21    30.54F WCI  22
LIMA           FRZ RAIN  32  31  96 NE15G24   30.47S WCI  22
$$

OHZ009>014-019>023-028>033-038-089-221300-
   NORTHEAST OHIO

CITY           SKY/WX    TMP DP  RH WIND       PRES   REMARKS
CLE-HOPKINS    FLURRIES  34  30  85 NE9       30.56S WCI  27
CLE-LAKEFRONT  MIX PCPN  34  28  79 NE9       30.55S WCI  27
CUY CO. ARPT   CLOUDY    34  30  86 E9        30.55  WCI  26
LORAIN-ELYRIA  FLURRIES  32  25  75 NE17      30.54S WCI  21
ASHTABULA      CLOUDY    32  29  88 NE3       30.56S
AKRON-CANTON   RAIN      34  30  85 NE10      30.50R WCI  26
WOOSTER        RAIN      33  31  92 NE12      30.49S FOG     WCI  24
MANSFIELD      FRZ RAIN  32  31  96 NE12      30.47S WCI  23
YOUNGSTOWN     FRZ RAIN  33  31  92 NE9       30.51S WCI  25
$$

OHZ042-051>053-060>062-070>072-077>081-221300-
  SOUTHWEST OHIO

CITY           SKY/WX    TMP DP  RH WIND       PRES   REMARKS
CINC-COVINGTON LGT RAIN  39  39 100 NE20      30.35F FOG
CINC-LUNKEN    RAIN      40  38  93 NE12      30.40F FOG
HAMILTON       LGT RAIN  41  31  67 NE14      30.40S
DAYTON         RAIN      36  36 100 NE16      30.43R
WRIGHT-PAT AFB LGT RAIN  37  34  87 NE14      30.41F
DAYTON GENERAL LGT RAIN  39  35  86 E17G26    30.38F
WILMINGTON     LGT RAIN  36  36 100 NE16G28   30.38S FOG
$$

OHZ036-037-039>041-045>050-054>059-063>069-073>076-082>088-221300-
  CENTRAL AND SOUTHEAST OHIO

CITY           SKY/WX    TMP DP  RH WIND       PRES   REMARKS
COLUMBUS       LGT RAIN  37  34  89 NE9       30.42F
OSU AIRPORT    LGT RAIN  37  34  89 NE14      30.43F
BOLTON FIELD   RAIN      36  33  91 NE10G20   30.42F
RICKENBACK AFB LGT RAIN  37  36  99 NE15      30.42S
NEWARK         LGT RAIN  37  33  85 NE12G17   30.40F
MARION         LGT RAIN  33  31  92 NE16      30.47F FOG     WCI  23
LANCASTER      LGT RAIN  38  36  92 NE14      30.40F
ZANESVILLE     RAIN      38  35  89 NE9       30.43S FOG
NEW PHILLY     LGT RAIN  36  33  89 VRB6      30.48F
$$




USA.gov is the U.S. government's official web portal to all federal, state and local government web resources and services.